Probability
6 10 13 19 13 10 6 6 6 3 3 3 0 3 3 3 6 6 13 10 10 13 13 13 10 10 13 10 10 10 10 3 6 10 6 10 13 16 16 19 19 26 23
13 10 10 13 10 6 6 6 3 3 3 6 0 0 3 3 3 10 13 13 10 10 10 6 10 13 13 6 10 10 6 6 6 6 6 6 10 10 13 13 10 19 26
10 13 13 10 3 6 6 3 0 3 3 0 3 3 3 3 6 3 3 6 6 3 6 6 10 13 10 6 6 6 3 3 3 6 6 6 3 10 13 16 13 16 16
6 6 3 10 3 6 6 6 6 6 3 3 3 3 0 6 0 0 0 0 0 0 0 0 13 6 0 0 0 3 3 0 0 3 6 3 6 6 10 10 10 13 13
3 6 6 3 0 6 6 3 6 6 3 3 0 3 3 3 0 0 0 0 0 0 0 0 0 3 0 0 0 0 3 0 0 3 3 0 3 10 10 10 10 10 13
3 3 6 3 3 10 6 6 6 6 3 3 0 3 3 0 0 0 0 0 0 0 0 0 0 0 0 0 0 0 3 0 0 0 0 0 6 6 10 10 10 10 10
10 10 0 3 10 10 10 0 6 3 3 3 0 0 0 0 0 0 0 0 0 0 0 0 0 0 0 0 0 0 0 0 0 0 0 0 6 6 10 6 6 6 6
6 6 6 10 10 19 13 6 6 6 3 0 3 0 0 0 0 0 0 0 0 0 0 0 0 0 0 0 0 0 0 3 3 0 0 3 3 6 10 6 6 13 13
3 6 10 3 3 10 13 6 6 3 3 0 3 3 3 0 0 0 0 0 0 0 0 0 0 0 0 0 0 0 0 0 3 3 3 6 10 6 6 3 3 6 6
3 6 6 3 3 10 10 3 3 10 6 3 0 3 3 3 0 0 0 0 0 0 0 0 0 0 0 0 0 0 0 0 0 0 3 3 10 10 10 6 6 6 6
3 3 3 3 0 10 6 6 6 10 10 6 6 3 0 0 0 0 0 0 0 0 0 0 3 0 0 0 0 0 0 0 0 0 0 6 6 6 6 6 10 10 6
3 3 3 3 3 6 6 6 10 10 6 6 6 3 0 0 0 0 0 0 0 0 0 0 0 0 0 0 0 0 0 0 0 0 0 3 6 6 6 6 10 10 10
3 3 3 3 0 3 3 3 10 6 10 10 6 3 3 0 0 0 0 0 0 0 0 0 0 0 0 0 0 0 0 0 0 0 0 0 6 6 6 10 10 10 10
3 3 3 0 0 0 0 3 6 6 6 10 10 6 3 0 0 0 0 0 0 0 0 0 0 0 0 3 3 0 0 0 0 0 0 0 3 6 6 13 10 10 10
3 3 3 0 0 0 0 0 6 3 3 6 6 10 0 3 10 6 6 0 0 0 0 0 0 0 0 0 0 0 0 0 0 0 0 0 3 6 6 3 6 10 10
0 3 3 0 0 0 0 0 0 3 3 3 6 0 0 0 0 10 13 13 6 0 0 0 0 0 0 0 0 0 0 0 0 0 0 0 0 0 0 0 0 0 0
0 3 3 0 0 0 0 0 0 0 0 0 0 0 0 0 0 3 10 3 3 3 3 0 0 0 0 0 0 0 0 0 0 0 0 0 0 0 0 0 0 0 0
3 3 3 3 0 0 0 0 0 0 0 0 0 0 0 0 0 0 0 0 0 0 0 0 3 3 0 0 0 0 0 0 0 0 0 0 0 0 0 0 0 0 0
3 3 3 3 0 0 0 0 0 0 0 0 0 0 0 0 0 0 0 0 0 0 0 0 0 3 0 0 0 0 0 3 0 0 0 0 0 0 0 0 0 0 0
0 3 3 3 0 0 0 0 0 0 0 0 0 0 0 0 0 0 0 0 0 0 3 3 0 0 0 0 0 0 0 3 3 0 0 0 0 0 0 0 0 0 0
3 3 0 0 0 0 0 0 0 0 0 0 0 0 0 0 0 0 0 0 0 3 3 0 0 0 0 0 0 0 0 0 0 0 0 0 0 0 0 0 0 0 0
0 0 0 0 0 0 0 0 0 0 0 0 0 0 0 0 0 0 0 0 0 0 0 0 0 0 0 0 0 0 0 0 0 0 0 0 3 3 3 0 0 0 0
0 0 0 0 0 0 0 0 0 0 0 0 0 0 0 0 0 0 0 0 0 0 0 0 0 0 0 0 0 0 0 0 0 0 0 0 0 3 3 0 0 0 0
3 3 0 0 0 0 0 0 0 0 0 0 0 0 3 0 0 0 0 0 0 0 0 0 0 0 0 0 0 0 0 0 0 0 0 0 0 0 0 0 0 0 0
0 0 0 0 0 0 0 0 0 0 0 0 3 3 3 0 0 0 0 0 0 0 0 0 0 0 0 0 0 0 0 0 0 0 0 0 0 0 0 0 0 0 0
3 0 0 0 0 0 0 0 0 0 0 0 0 0 0 0 0 0 0 0 0 0 0 0 0 0 0 0 0 0 0 0 0 0 0 0 0 0 0 0 0 0 0
Height
5846 5846 5845 5845 5845 5845 5845 5845 5845 5845 5845 5845 5845 5846 5846 5847 5847 5847 5847 5848 5848 5849 5850 5850 5851 5851 5852 5852 5852 5853 5853 5854 5854 5854 5854 5855 5855 5855 5856 5856 5856 5856 5856
5844 5844 5844 5844 5843 5843 5843 5843 5843 5843 5843 5843 5843 5843 5844 5844 5845 5845 5845 5846 5846 5846 5847 5848 5848 5849 5849 5849 5850 5850 5850 5851 5851 5851 5852 5852 5852 5853 5853 5853 5854 5854 5854
5843 5843 5842 5842 5842 5841 5841 5841 5841 5841 5841 5841 5841 5841 5842 5842 5842 5843 5843 5843 5843 5844 5844 5845 5845 5846 5846 5846 5847 5847 5847 5848 5848 5849 5849 5849 5849 5850 5850 5850 5850 5851 5851
5841 5841 5841 5840 5840 5839 5839 5839 5839 5839 5839 5839 5839 5839 5839 5840 5840 5841 5841 5841 5841 5841 5842 5842 5842 5843 5843 5844 5844 5844 5844 5845 5845 5845 5846 5846 5846 5846 5847 5847 5847 5847 5848
5840 5839 5839 5838 5838 5838 5837 5837 5837 5837 5837 5837 5837 5837 5837 5838 5838 5838 5838 5838 5838 5838 5839 5839 5840 5840 5841 5841 5841 5841 5842 5842 5842 5842 5842 5842 5843 5843 5843 5844 5844 5844 5844
5838 5837 5837 5836 5836 5836 5835 5835 5835 5835 5835 5835 5835 5835 5835 5835 5835 5836 5836 5836 5836 5836 5836 5837 5837 5837 5838 5838 5838 5838 5839 5839 5839 5839 5839 5839 5839 5840 5840 5840 5840 5841 5841
5836 5835 5835 5834 5834 5834 5834 5833 5833 5833 5833 5833 5833 5833 5833 5833 5833 5833 5833 5833 5833 5833 5833 5834 5834 5834 5835 5835 5836 5836 5836 5835 5835 5836 5836 5836 5836 5836 5836 5837 5837 5837 5837
5834 5833 5833 5832 5832 5832 5831 5831 5831 5831 5831 5831 5831 5831 5831 5832 5831 5831 5831 5831 5831 5831 5831 5831 5832 5832 5832 5833 5833 5833 5833 5832 5832 5832 5833 5832 5832 5832 5833 5833 5833 5833 5833
5832 5831 5831 5830 5830 5829 5829 5829 5829 5829 5829 5829 5829 5829 5829 5829 5829 5829 5829 5829 5829 5829 5829 5829 5829 5829 5829 5830 5830 5830 5830 5829 5829 5829 5829 5829 5829 5829 5828 5828 5829 5829 5830
5830 5829 5829 5828 5828 5827 5827 5827 5827 5827 5827 5827 5827 5827 5827 5827 5827 5827 5827 5826 5826 5826 5826 5826 5826 5827 5827 5827 5827 5827 5827 5826 5826 5826 5826 5826 5825 5825 5823 5823 5823 5825 5826
5828 5827 5827 5826 5826 5825 5825 5825 5824 5824 5824 5825 5825 5824 5824 5824 5824 5824 5824 5824 5824 5824 5824 5824 5824 5824 5824 5824 5824 5824 5824 5824 5823 5823 5823 5823 5822 5821 5819 5818 5819 5821 5822
5826 5825 5825 5824 5824 5823 5823 5822 5822 5822 5822 5822 5822 5822 5822 5821 5821 5821 5821 5821 5821 5821 5821 5821 5821 5821 5821 5821 5821 5821 5821 5821 5821 5820 5820 5820 5819 5818 5817 5816 5817 5818 5819
5823 5823 5822 5822 5821 5821 5820 5820 5820 5819 5819 5819 5819 5819 5819 5818 5818 5818 5818 5818 5818 5818 5818 5818 5818 5818 5818 5818 5818 5818 5818 5818 5818 5817 5817 5817 5817 5816 5816 5815 5815 5816 5816
5820 5819 5819 5819 5818 5818 5817 5817 5816 5816 5816 5816 5816 5815 5815 5815 5815 5815 5815 5815 5816 5816 5816 5816 5816 5815 5816 5815 5815 5815 5815 5815 5815 5815 5814 5814 5814 5814 5813 5813 5813 5813 5812
5816 5816 5816 5815 5815 5814 5814 5814 5813 5813 5813 5813 5812 5812 5812 5812 5812 5812 5812 5812 5813 5813 5813 5812 5812 5813 5812 5812 5812 5812 5812 5811 5811 5811 5811 5811 5811 5810 5810 5810 5809 5809 5808
5812 5812 5811 5811 5811 5811 5810 5810 5810 5810 5809 5809 5809 5809 5808 5808 5808 5808 5808 5808 5808 5809 5809 5809 5809 5809 5809 5809 5809 5809 5808 5808 5808 5808 5808 5808 5807 5807 5807 5806 5806 5805 5804
5807 5807 5807 5807 5806 5806 5806 5806 5806 5806 5805 5805 5805 5805 5805 5805 5805 5805 5805 5805 5805 5805 5805 5805 5805 5805 5805 5805 5805 5805 5805 5805 5804 5804 5804 5804 5804 5803 5803 5802 5801 5801 5800
5801 5801 5802 5802 5802 5802 5802 5802 5801 5801 5801 5801 5801 5801 5801 5801 5801 5801 5801 5801 5801 5801 5802 5802 5802 5802 5801 5801 5801 5801 5801 5801 5801 5800 5800 5800 5800 5799 5798 5797 5797 5796 5795
5795 5796 5796 5796 5796 5796 5796 5796 5796 5796 5796 5796 5796 5796 5796 5797 5797 5797 5797 5797 5797 5797 5797 5798 5798 5798 5798 5797 5797 5797 5797 5797 5796 5796 5796 5795 5795 5794 5794 5793 5792 5791 5790
5789 5790 5790 5790 5790 5790 5791 5791 5791 5791 5791 5791 5791 5791 5792 5792 5792 5792 5793 5793 5793 5793 5793 5793 5793 5793 5793 5793 5793 5793 5792 5792 5792 5791 5791 5791 5790 5789 5789 5788 5787 5786 5785
5783 5783 5783 5783 5784 5784 5784 5785 5785 5785 5785 5786 5786 5786 5786 5787 5787 5788 5788 5788 5788 5788 5789 5789 5789 5789 5789 5788 5788 5788 5787 5787 5787 5786 5786 5786 5785 5784 5783 5782 5782 5781 5780
5775 5776 5776 5777 5777 5777 5777 5778 5779 5779 5779 5780 5780 5780 5781 5781 5782 5782 5782 5782 5783 5783 5783 5783 5784 5784 5783 5783 5783 5782 5782 5782 5782 5781 5780 5780 5779 5778 5777 5776 5775 5774 5773
5768 5769 5769 5770 5770 5770 5771 5771 5772 5773 5773 5774 5774 5774 5775 5775 5775 5776 5776 5777 5777 5777 5778 5778 5778 5778 5777 5777 5777 5777 5776 5776 5775 5775 5774 5774 5773 5772 5771 5770 5769 5768 5767
5762 5762 5762 5763 5764 5764 5764 5765 5765 5766 5766 5767 5767 5768 5768 5769 5769 5770 5770 5770 5771 5771 5771 5771 5771 5771 5771 5770 5770 5770 5770 5769 5769 5768 5767 5767 5766 5765 5763 5762 5762 5760 5759
5755 5755 5756 5756 5757 5757 5757 5758 5758 5759 5759 5760 5760 5761 5761 5762 5763 5763 5763 5764 5764 5764 5763 5764 5764 5764 5763 5763 5763 5763 5762 5762 5761 5761 5760 5759 5758 5757 5756 5755 5754 5753 5752
5749 5749 5749 5749 5749 5750 5750 5750 5751 5751 5752 5753 5753 5754 5754 5755 5755 5755 5755 5756 5756 5756 5756 5756 5756 5756 5756 5755 5755 5755 5754 5753 5753 5752 5751 5750 5749 5748 5748 5747 5745 5744 5743
Wind_Speed
9 9 9 10 10 10 10 10 10 11 11 12 11 12 12 11 12 12 11 11 11 12 12 12 12 11 12 12 12 11 12 12 12 12 12 12 13 13 13 13 13 12 12
7 8 8 8 9 9 9 10 10 10 11 11 11 11 12 11 11 11 11 12 12 12 13 13 12 12 12 13 12 13 12 12 12 12 13 13 13 14 13 13 13 13 13
7 7 8 9 9 9 9 10 10 10 10 10 10 11 11 11 11 12 12 12 12 12 12 13 13 13 13 13 13 13 13 13 13 13 13 13 14 14 14 15 14 14 14
8 8 8 9 9 9 9 9 9 9 10 10 10 10 10 11 11 12 13 13 13 12 12 12 13 13 13 13 13 13 13 13 13 13 13 13 13 14 14 15 15 15 14
8 8 8 9 9 9 8 8 9 9 10 10 10 10 10 11 11 11 12 12 12 12 12 12 12 13 13 13 13 13 13 14 14 14 14 14 13 14 15 15 15 16 15
8 8 8 8 9 9 8 8 8 8 9 9 9 9 9 10 10 11 11 11 11 10 11 12 12 13 13 13 12 13 13 14 14 13 14 14 14 14 14 16 16 16 16
8 8 8 8 9 9 8 8 8 8 8 8 8 9 9 10 10 10 10 11 11 10 10 11 12 12 12 12 12 12 13 13 13 13 13 13 14 14 14 15 15 15 16
9 8 8 8 8 8 8 8 8 8 8 8 8 9 9 10 10 10 11 11 11 11 11 11 11 11 11 12 12 12 13 14 13 13 12 12 12 13 14 15 15 15 16
9 9 8 8 8 8 8 8 8 8 8 8 8 8 9 10 10 10 11 11 11 11 11 10 11 11 11 12 12 12 12 12 12 13 13 13 13 13 14 15 16 16 16
9 9 9 9 9 9 9 8 8 9 8 8 9 9 9 9 10 11 11 12 11 11 11 10 10 10 11 12 12 12 12 12 11 11 12 12 12 13 14 14 14 14 14
9 9 9 9 9 9 9 9 9 9 9 9 9 9 10 10 10 10 11 11 11 11 11 11 11 11 11 11 12 12 12 12 12 12 12 12 12 13 12 12 12 13 13
9 9 10 9 10 9 9 10 9 10 10 10 10 10 11 11 11 11 11 11 11 11 11 11 11 11 12 12 11 11 12 12 12 12 11 12 12 11 11 12 12 13 13
10 10 11 11 11 11 11 10 10 11 11 11 11 11 11 11 11 11 11 11 11 11 11 11 11 11 12 12 12 12 12 12 12 11 11 12 12 12 12 12 12 12 13
12 12 12 12 12 12 12 12 11 12 12 12 12 12 12 12 11 11 11 12 12 12 12 12 12 12 12 13 13 13 13 12 11 11 12 12 12 12 12 12 13 13 14
14 14 14 13 13 13 12 12 12 13 13 13 13 13 13 13 13 12 12 12 13 13 13 13 13 13 13 13 13 13 13 12 12 11 11 12 12 12 12 13 13 14 15
15 15 15 15 15 14 14 14 14 14 14 14 14 13 14 14 13 13 13 13 14 14 14 14 13 13 13 13 13 13 13 13 13 12 12 12 13 13 13 14 14 14 15
17 17 16 16 16 16 15 15 15 15 15 15 15 15 14 14 14 14 14 14 14 14 14 14 14 13 14 14 14 14 14 14 13 13 13 13 14 14 14 15 15 16 16
19 19 18 18 18 18 17 17 16 16 16 15 15 16 15 15 15 15 15 15 15 15 15 14 14 14 14 14 14 14 15 15 14 14 14 14 15 15 16 16 16 17 17
20 20 19 19 19 19 19 18 18 17 17 17 17 17 16 16 15 15 15 16 16 16 16 16 15 15 15 14 15 15 16 15 15 15 16 16 16 17 17 18 18 17 18
21 21 21 21 20 20 20 19 19 19 18 18 19 18 18 17 17 16 16 17 17 17 17 17 16 16 16 16 16 16 16 16 16 17 17 17 17 18 19 19 19 19 19
22 22 22 22 22 22 21 21 20 20 19 19 19 19 19 19 19 18 18 18 18 17 18 18 17 17 17 18 18 17 17 17 17 18 18 18 19 19 20 20 20 21 21
23 22 22 22 23 22 22 21 21 21 20 20 20 20 20 20 20 20 20 20 19 19 19 19 19 19 19 19 19 19 19 19 19 19 20 20 21 21 21 21 22 22 22
22 22 22 22 22 23 23 22 22 22 22 22 22 21 20 20 21 21 21 21 21 21 21 21 21 21 21 21 21 20 21 21 21 21 21 22 23 23 23 23 23 23 23
21 21 22 22 22 23 23 23 23 23 23 23 23 23 22 21 21 21 21 22 22 23 23 23 23 23 23 23 23 23 23 23 24 24 24 24 24 25 25 25 24 24 24
21 22 22 22 23 23 23 23 24 25 25 24 25 24 23 23 23 23 23 23 24 24 25 25 25 25 25 25 25 26 26 26 26 26 27 27 26 27 26 26 26 26 26
21 22 23 23 24 24 24 24 25 25 25 25 25 25 25 25 25 25 26 26 26 26 26 26 26 26 27 27 28 28 28 28 28 28 28 28 28 28 28 28 28 28 28
Wind_Direction
269 265 263 259 255 252 252 249 245 246 247 247 247 244 242 240 239 240 240 243 244 244 245 245 247 248 250 253 253 252 254 256 256 253 252 252 252 252 254 255 260 263 265
269 264 260 256 252 252 252 251 249 250 251 250 248 244 240 240 241 241 241 245 247 247 246 246 249 250 253 254 254 254 254 254 255 254 254 253 252 252 255 256 259 263 266
269 265 261 257 257 256 255 254 255 255 253 250 250 248 241 241 244 242 242 245 246 245 247 248 249 251 253 254 253 255 253 253 255 256 257 256 254 256 258 258 259 262 263
269 265 264 264 265 261 257 252 253 254 253 251 249 246 244 244 245 245 246 248 249 248 248 248 249 250 251 251 252 254 256 256 256 258 258 256 256 258 259 258 260 263 263
270 267 267 265 265 263 261 256 256 256 252 251 247 246 248 247 246 248 250 249 249 248 248 249 249 249 250 250 252 253 255 257 258 261 259 256 257 259 260 260 263 264 265
277 273 271 269 265 264 263 261 260 259 253 252 249 248 250 249 246 246 250 249 249 251 251 251 251 251 252 253 255 255 256 258 259 260 261 258 260 262 263 263 264 264 264
275 275 276 275 272 268 261 261 262 259 253 252 251 250 249 249 249 248 250 250 248 250 252 252 252 250 249 252 257 260 263 261 260 261 261 262 263 263 266 266 267 266 264
275 274 275 274 271 268 263 261 261 257 251 249 249 250 250 251 254 253 252 253 252 252 255 255 256 253 253 256 259 262 265 264 260 260 261 265 266 268 268 268 268 268 267
274 272 270 272 273 269 265 262 259 256 250 246 249 251 252 252 257 254 253 254 256 255 255 258 257 255 259 261 263 265 268 265 262 261 262 263 266 271 272 270 269 267 267
274 270 270 272 273 271 266 263 260 256 253 253 252 252 253 254 253 251 255 256 256 255 256 259 258 260 262 262 264 266 268 266 265 265 265 269 271 274 272 270 269 267 267
268 268 269 270 271 271 264 263 261 258 256 255 254 255 255 257 257 255 256 256 255 255 257 258 259 259 262 263 261 263 265 264 267 267 269 271 274 277 274 269 267 265 266
269 268 267 268 270 270 268 266 261 258 256 255 255 256 257 259 260 258 258 258 257 258 257 258 258 258 261 263 262 264 266 267 269 267 268 270 273 277 279 272 268 267 268
269 268 267 265 266 267 269 266 262 260 260 260 259 259 259 259 259 259 256 255 256 257 257 257 257 258 261 264 268 269 270 268 266 267 269 271 271 275 276 275 272 272 272
269 268 269 266 264 265 267 264 261 260 261 262 263 263 262 260 257 258 257 256 256 258 259 259 259 261 262 268 270 272 273 270 268 268 270 273 271 271 272 274 275 273 274
267 267 267 265 264 264 265 264 261 259 259 259 261 263 261 261 259 260 260 258 257 259 259 261 261 261 264 268 270 272 273 271 271 270 271 272 269 267 269 274 277 277 277
267 268 266 264 263 264 263 262 261 260 260 259 259 260 260 257 258 258 259 260 257 258 259 261 262 262 267 269 270 271 272 270 271 272 272 270 269 270 270 274 277 279 280
267 267 267 264 262 261 260 259 261 262 260 258 258 260 260 258 258 259 260 260 256 256 260 261 263 265 268 268 269 269 271 269 270 270 273 273 273 275 276 277 279 281 282
266 264 263 261 261 260 259 259 261 262 260 259 259 259 258 259 259 260 260 259 258 258 258 260 263 264 266 267 267 268 269 271 267 268 272 274 275 276 277 279 280 281 284
263 262 261 260 259 259 259 260 260 260 260 260 260 259 259 259 260 260 260 258 258 257 257 260 262 262 264 267 268 270 270 269 269 270 272 274 275 276 276 278 280 281 283
262 261 260 260 259 260 260 259 259 259 260 260 259 258 257 258 259 259 259 260 260 259 257 259 260 260 264 267 268 270 271 272 273 273 273 274 276 277 277 277 278 280 283
263 260 258 258 259 260 260 258 257 258 259 258 257 257 256 256 258 260 260 260 261 260 258 260 260 261 264 267 267 269 271 274 274 274 274 274 276 278 279 278 278 280 281
263 260 257 257 258 259 259 259 257 257 257 256 256 256 255 255 256 259 261 260 259 260 260 261 260 262 265 267 268 269 272 273 273 273 274 275 276 277 279 279 278 279 281
264 261 259 258 258 258 258 258 256 257 257 255 255 256 256 256 257 259 260 260 260 260 261 263 263 264 266 267 266 268 270 271 273 275 275 276 277 277 278 277 278 280 281
265 263 261 260 261 261 259 258 257 257 258 257 256 255 257 257 258 258 259 260 261 262 262 263 264 264 265 265 267 268 270 272 274 275 276 276 276 277 277 277 277 279 280
265 261 260 260 261 261 260 259 259 258 258 258 257 256 256 257 258 259 260 261 262 263 263 263 263 263 264 265 267 269 271 272 274 275 275 275 275 276 276 276 276 277 278
266 263 261 260 260 260 260 259 259 259 258 258 258 257 257 257 258 260 261 261 262 262 263 263 264 265 264 265 267 269 271 271 273 275 275 275 275 275 275 274 275 277 278